Regional Weather Roundup
Issued by NWS Upton, NY

Current Version | Previous Version | Graphics & Text | Print | Product List | Glossary Off
Versions: 1 2 3 4 5 6 7 8 9 10 11 12 13 14 15 16 17 18 19 20 21 22 23 24 25 26 27 28 29 30 31 32 33 34 35 36 37 38 39 40 41 42 43 44 45 46 47 48 49 50

000
ASUS41 KOKX 271005
RWROKX

REGIONAL WEATHER ROUNDUP
NATIONAL WEATHER SERVICE NEW YORK NY
500 AM EST THU NOV 27 2014

NOTE: "FAIR" INDICATES FEW OR NO CLOUDS BELOW 12,000 FEET WITH NO
SIGNIFICANT WEATHER AND/OR OBSTRUCTIONS TO VISIBILITY.

NYZ071-072-176-178-NJZ106-104-271100-
NEW YORK CITY METRO AREA


CITY           SKY/WX    TMP DP  RH WIND       PRES   REMARKS
CENTRAL PARK   CLOUDY    36  30  79 NW3       29.96R
LAGUARDIA APRT CLOUDY    36  30  79 NW8       29.94R WCI  30
KENNEDY INTL   CLOUDY    37  29  72 NW12      29.94R WCI  29
NEWARK/LIBERTY CLOUDY    36  32  85 W8        29.94R WCI  30
BRNX BOT. GARD   N/A     36  32  87 N3        29.93R
TETERBORO      CLOUDY    36  31  82 CALM      29.93R
$$

NYZ177-179-078>081-271100-
LONG ISLAND NEW YORK

CITY           SKY/WX    TMP DP  RH WIND       PRES   REMARKS
FARMINGDALE    CLOUDY    36  30  79 NW8       29.93R WCI  30
ISLIP          CLOUDY    35  31  85 W7        29.89R WCI  29
SHIRLEY        MOCLDY    35  32  88 NW8       29.90R WCI  29
WESTHAMPTON    CLOUDY    37  33  85 NW9       29.89R WCI  30
MONTAUK POINT    N/A     38  32  79 NW10      29.86R WCI  31
$$

NYZ052-065-067-271100-
HUDSON VALLEY

CITY           SKY/WX    TMP DP  RH WIND       PRES   REMARKS
WHITE PLAINS   MOCLDY    33  28  81 NW13      29.90R WCI  24
NEWBURGH       NOT AVBL
MONTGOMERY     CLOUDY    31  30  96 W3        29.92R
POUGHKEEPSIE   MOCLDY    31  27  85 SW3       29.93R
ALBANY         FLURRIES  30  26  85 NW7       29.95R WCI  23
$$

NJZ001-105-106-008-010-013-015-019>022-104-271100-
NEW JERSEY

CITY           SKY/WX    TMP DP  RH WIND       PRES   REMARKS
NEWARK/LIBERTY CLOUDY    36  32  85 W8        29.94R WCI  30
TETERBORO      CLOUDY    36  31  82 CALM      29.93R
CALDWELL       CLOUDY    34  30  85 CALM      29.94R
MORRISTOWN       N/A     37  32  81 CALM      29.94R
SOMERVILLE     CLOUDY    35  31  85 VRB3      29.94R
SUSSEX         CLOUDY    33  29  85 VRB3      29.93R
ANDOVER          N/A     31  30  96 CALM      29.93R
TRENTON        CLOUDY    35  29  78 W7        29.96R WCI  29
MILLVILLE      PTCLDY    35  32  88 NW3       29.97F
ATLANTIC CITY  CLOUDY    36  33  89 NW7       29.97S WCI  30
WRIGHTSTOWN    CLOUDY    35  32  88 W6        29.94S WCI  30
TOMS RIVER     CLOUDY    36  34  93 CALM      29.96R
BELMAR         CLOUDY    36  28  75 W6        29.94S WCI  31
$$

PAZ047>061-062-071-271100-
EASTERN PENNSYLVANIA

CITY           SKY/WX    TMP DP  RH WIND       PRES   REMARKS
PHILADELPHIA   CLOUDY    36  31  82 N7        29.97F WCI  30
ALLENTOWN      FLURRIES  33  29  85 W5        29.96R WCI  29
SCRANTON       FLURRIES  30  26  85 W8G16     29.95R WCI  22
$$

CTZ002-004>006-009-010-012-RIZ004-006-007-MAZ004-011-015-271100-
SOUTHERN NEW ENGLAND
 IN CT

CITY           SKY/WX    TMP DP  RH WIND       PRES   REMARKS
BRADLEY INTL   MOCLDY    34  29  82 NW5       29.86R WCI  30
HARTFORD       CLOUDY    34  30  85 VRB6      29.88R WCI  29
DANBURY        CLOUDY    32  25  75 NW7       29.90S WCI  26
WTRBRY/OXFORD  CLOUDY    30  23  74 NW5       29.88R WCI  25
BRIDGEPORT     CLOUDY    35  29  78 NW9       29.89R WCI  28
MERIDEN        CLOUDY    34  28  79 NW8       29.88R WCI  27
NEW HAVEN      CLOUDY    37  29  72 NW6       29.87R WCI  32
CHESTER        CLOUDY    34  32  93 N9        29.85R WCI  26
GROTON         CLEAR     33  33 100 NW6       29.85R WCI  28
WILLIMANTIC    CLOUDY    34  29  82 N5        29.85R WCI  30

 IN RI

CITY           SKY/WX    TMP DP  RH WIND       PRES   REMARKS
PROVIDENCE     PTCLDY    34  30  85 NW7       29.82R WCI  28
BLOCK ISLAND   PTCLDY    36  28  75 N8        29.83R WCI  29
WESTERLY       CLEAR     33  30  88 VRB3      29.84R

 IN MA

CITY           SKY/WX    TMP DP  RH WIND       PRES   REMARKS
BOSTON         CLOUDY    35  32  88 NW10      29.81R WCI  27
WORCESTER      CLOUDY    29  27  92 NW16      29.79R WCI  17
WESTFIELD      PTCLDY    33  28  81 NW6       29.86R WCI  28
PROVINCETOWN   CLOUDY    43  34  70 N28G37    29.76R
NANTUCKET      CLOUDY    39  35  86 NW21G32   29.74R WCI  29
$$

ANZ330-335-338-340-345-350-353-355-271100-
COASTAL MARINE OBSERVATIONS


STATION/POSITION TIME  SKY/WX   TEMP    WIND        PRES    VSBY  WAVE
                                AIR SEA DIR/SP/G                  HT/PER
                 (UTC)          (F)     (DEG/KT/KT) (MB)    (MI)  (FT/S)
NY HARB ENTRANCE 1000            40 55  330/ 16/ 21 1013.6          5/11
4S FIRE IS       1000               52                N/A           6/11
20S FIRE ISLAND  1000            40 54  320/ 16/ 19 1012.8          7/11
23SW MTP         1000                                 N/A           9/11
HUDSON CANYON    1000            44 58  310/ 17/ 21 1012.0         11/11
EXECUTION ROCKS  1000            37 48  330/ 10/ 17   N/A
WESTERN LI SOUND 1000            37     340/ 12/ 16   N/A           1/ 2
CENTRAL LI SOUND 0900            38 50  300/ 14/ 17   N/A           2/ 3
EASTERN LI SOUND 0900            37 52  310/ 12/ 14   N/A
ROBBINS REEF     1000            37     310/  8/ 10 1012.5
$$


>>>>>>>>>>>>>>>>>>>>>>>>>>>> KEY <<<<<<<<<<<<<<<<<<<<<<<<<<<
>                                                          <
>     SKY/WX - SKY CONDITION/PRESENT WEATHER               <
>     TMP    - TEMPERATURE IN FAHRENHEIT                   <
>     DP     - DEWPOINT IN FAHRENHEIT                      <
>     RH     - RELATIVE HUMIDITY IN PERCENT                <
>     WIND   - DIRECTION AND SPEED IN MPH                  <
>     PRES   - MEAN SEA LEVEL PRESSURE IN INCHES OF HG     <
>     WCI    - WIND CHILL INDEX                            <
>     VSB    - VISIBILITY IN MILES                         <
>     HX     - HEAT INDEX                                  <
>     TC     - TEMPERATURE IN CELSIUS                      <
>     VRB    - VARIABLE WIND DIRECTION                     <
>                                                          <
>>>>>>>>>>>>>>>>>>>>>>>>>>>> KEY <<<<<<<<<<<<<<<<<<<<<<<<<<<





USA.gov is the U.S. government's official web portal to all federal, state and local government web resources and services.